Simultaneous Nadir Overpasses (SNOs) Predictions

Prediction of SNOs between METOP-B and TERRA Satellite Orbit:

Table of predicted SNOs for the next 14.0 days since TLE Epoch: 5/17/2014
Index Date (METOP-B) Time (METOP-B) Lat,Lon (METOP-B) SZA (METOP-B ) Date (TERRA) Time (TERRA) Lat,Lon (TERRA) SZA (TERRA ) Distance(km) Time Diff (sec)
1 05/17/2014 14:18:09 -81.32,-167.11 115.05 05/17/2014 14:18:39 -81.32,-166.99 115.02 2.01 30
2 05/17/2014 15:08:48 81.33, 0.91 65.03 05/17/2014 15:08:05 81.33, 0.85 65.01 1.16 43
3 05/20/2014 09:52:31 -81.32,-100.55 115.64 05/20/2014 09:52:55 -81.32,-100.49 115.62 1.05 24
4 05/20/2014 10:43:10 81.33, 67.48 64.45 05/20/2014 10:42:21 81.33, 67.31 64.40 2.95 49
5 05/23/2014 05:26:54 -81.32, -34.05 116.19 05/23/2014 05:27:12 -81.32, -34.21 116.20 2.73 18
6 05/
